• en Suisse
  • Liste des pays
  • À 7 jours
  • Température de l'eau
  • Carte satellitaire
  • Carte météo
  • Widgets météo
  • user-avatar
    Se connecter

    Météo par heure à Mbandaka

    Ce jour, 20 Février, Mardi

    Heure Température Précipitation Vent Pression Humidité
    00:00 +26°C° 0 mm 1 m/s 730 mmHg 82%
    01:00 +25°C° 0 mm 1 m/s 730 mmHg 86%
    02:00 +25°C° 0,2 mm 1 m/s 730 mmHg 88%
    03:00 +25°C° 0,2 mm 1 m/s 730 mmHg 90%
    04:00 +24°C° 0,2 mm 1 m/s 730 mmHg 91%
    05:00 +25°C° 0 mm 1 m/s 730 mmHg 91%
    06:00 +25°C° 0 mm 1 m/s 730 mmHg 90%
    07:00 +25°C° 0 mm 1 m/s 731 mmHg 88%
    08:00 +26°C° 0,2 mm 1 m/s 731 mmHg 85%
    09:00 +26°C° 0,2 mm 2 m/s 731 mmHg 83%
    10:00 +27°C° 0,2 mm 2 m/s 731 mmHg 80%
    11:00 +28°C° 0,1 mm 2 m/s 730 mmHg 74%
    12:00 +30°C° 0,1 mm 2 m/s 729 mmHg 68%
    13:00 +32°C° 0 mm 2 m/s 729 mmHg 57%
    14:00 +32°C° 0 mm 2 m/s 728 mmHg 56%
    15:00 +32°C° 0 mm 1 m/s 728 mmHg 55%
    16:00 +32°C° 0 mm 1 m/s 728 mmHg 54%
    17:00 +31°C° 0,1 mm 1 m/s 728 mmHg 62%
    18:00 +29°C° 0,1 mm 1 m/s 728 mmHg 69%
    19:00 +27°C° 0,1 mm 1 m/s 728 mmHg 77%
    20:00 +27°C° 0,1 mm 1 m/s 729 mmHg 79%
    21:00 +26°C° 0,1 mm 1 m/s 729 mmHg 81%
    22:00 +26°C° 0,1 mm 1 m/s 730 mmHg 83%
    23:00 +26°C° 0 mm 1 m/s 729 mmHg 85%

    Demain, 21 Février, Mercredi

    Heure Température Précipitation Vent Pression Humidité
    00:00 +25°C° 0 mm 1 m/s 729 mmHg 86%
    01:00 +25°C° 0 mm 1 m/s 729 mmHg 88%
    02:00 +25°C° 0,1 mm 1 m/s 729 mmHg 89%
    03:00 +25°C° 0,1 mm 1 m/s 729 mmHg 90%
    04:00 +25°C° 0,1 mm 1 m/s 729 mmHg 91%
    05:00 +25°C° 0,1 mm 1 m/s 729 mmHg 91%
    06:00 +25°C° 0,1 mm 1 m/s 729 mmHg 90%
    07:00 +25°C° 0,1 mm 1 m/s 730 mmHg 89%
    08:00 +27°C° 0,1 mm 1 m/s 730 mmHg 81%
    09:00 +29°C° 0,1 mm 1 m/s 730 mmHg 73%
    10:00 +31°C° 0,1 mm 1 m/s 731 mmHg 65%
    11:00 +32°C° 0 mm 2 m/s 730 mmHg 58%
    12:00 +35°C° 0 mm 2 m/s 730 mmHg 51%
    13:00 +37°C° 0 mm 2 m/s 729 mmHg 44%
    14:00 +36°C° 0 mm 2 m/s 728 mmHg 46%
    15:00 +34°C° 0 mm 1 m/s 728 mmHg 48%
    16:00 +34°C° 0 mm 1 m/s 727 mmHg 50%
    17:00 +32°C° 0,1 mm 1 m/s 727 mmHg 57%
    18:00 +30°C° 0,1 mm 1 m/s 727 mmHg 65%
    19:00 +28°C° 0,1 mm 1 m/s 727 mmHg 72%
    20:00 +27°C° 0,1 mm 1 m/s 728 mmHg 76%
    21:00 +27°C° 0,1 mm 1 m/s 728 mmHg 80%
    22:00 +26°C° 0,1 mm 1 m/s 729 mmHg 84%
    23:00 +24°C° 0,3 mm 0 m/s 728 mmHg 84%

    Après-demain, 22 Février, Jeudi

    Heure Température Précipitation Vent Pression Humidité
    00:00 +23°C° 0,3 mm 0 m/s 728 mmHg 85%
    01:00 +23°C° 0,3 mm 0 m/s 728 mmHg 86%
    02:00 +23°C° 1 mm 0 m/s 728 mmHg 88%
    03:00 +22°C° 1 mm 0 m/s 728 mmHg 90%
    04:00 +22°C° 1 mm 0 m/s 728 mmHg 92%
    05:00 +22°C° 2 mm 0 m/s 729 mmHg 92%
    06:00 +24°C° 2 mm 1 m/s 729 mmHg 93%
    07:00 +24°C° 2 mm 1 m/s 730 mmHg 94%
    08:00 +26°C° 0,9 mm 1 m/s 731 mmHg 90%
    09:00 +27°C° 0,9 mm 2 m/s 731 mmHg 86%
    10:00 +28°C° 0,9 mm 2 m/s 731 mmHg 82%
    11:00 +30°C° 0,4 mm 2 m/s 731 mmHg 71%
    12:00 +32°C° 0,4 mm 2 m/s 730 mmHg 61%
    13:00 +35°C° 0,4 mm 2 m/s 729 mmHg 50%
    14:00 +35°C° 0 mm 2 m/s 728 mmHg 50%
    15:00 +35°C° 0 mm 2 m/s 728 mmHg 49%
    16:00 +35°C° 0 mm 2 m/s 727 mmHg 48%
    17:00 +32°C° 0 mm 1 m/s 727 mmHg 55%
    18:00 +30°C° 0 mm 1 m/s 728 mmHg 63%
    19:00 +28°C° 0 mm 1 m/s 728 mmHg 70%
    20:00 +28°C° 0,2 mm 1 m/s 729 mmHg 75%
    21:00 +27°C° 0,2 mm 1 m/s 729 mmHg 79%
    22:00 +26°C° 0,2 mm 1 m/s 729 mmHg 83%
    23:00 +26°C° 0 mm 1 m/s 729 mmHg 85%

    23 Février, Vendredi

    Heure Température Précipitation Vent Pression Humidité
    00:00 +25°C° 0 mm 1 m/s 728 mmHg 86%
    01:00 +25°C° 0 mm 1 m/s 728 mmHg 87%
    02:00 +25°C° 0 mm 1 m/s 728 mmHg 88%
    03:00 +22°C° 0 mm 0 m/s 728 mmHg 89%
    04:00 +22°C° 0 mm 0 m/s 728 mmHg 90%
    05:00 +22°C° 0 mm 0 m/s 728 mmHg 88%
    06:00 +23°C° 0 mm 0 m/s 729 mmHg 87%
    07:00 +25°C° 0 mm 1 m/s 730 mmHg 85%
    08:00 +29°C° 0 mm 1 m/s 730 mmHg 72%
    09:00 +32°C° 0 mm 1 m/s 730 mmHg 59%
    10:00 +34°C° 0 mm 0 m/s 731 mmHg 46%
    11:00 +35°C° 0 mm 0 m/s 730 mmHg 42%
    12:00 +37°C° 0 mm 0 m/s 729 mmHg 37%
    13:00 +38°C° 0 mm 0 m/s 728 mmHg 33%
    14:00 +37°C° 0 mm 0 m/s 727 mmHg 34%
    15:00 +36°C° 0 mm 0 m/s 727 mmHg 36%
    16:00 +35°C° 0 mm 0 m/s 726 mmHg 37%
    17:00 +33°C° 0 mm 0 m/s 726 mmHg 43%
    18:00 +31°C° 0 mm 0 m/s 727 mmHg 50%
    19:00 +31°C° 0 mm 1 m/s 727 mmHg 56%
    20:00 +29°C° 0,2 mm 1 m/s 727 mmHg 63%
    21:00 +28°C° 0,2 mm 1 m/s 728 mmHg 69%
    22:00 +27°C° 0,2 mm 1 m/s 728 mmHg 76%
    23:00 +25°C° 0,1 mm 0 m/s 728 mmHg 77%

    24 Février, Samedi

    Heure Température Précipitation Vent Pression Humidité
    00:00 +24°C° 0,1 mm 0 m/s 727 mmHg 78%
    01:00 +24°C° 0,1 mm 0 m/s 727 mmHg 80%
    02:00 +24°C° 0,3 mm 0 m/s 727 mmHg 82%
    03:00 +23°C° 0,3 mm 0 m/s 728 mmHg 84%
    04:00 +23°C° 0,3 mm 0 m/s 728 mmHg 86%
    05:00 +23°C° 0,2 mm 0 m/s 729 mmHg 86%
    06:00 +25°C° 0,2 mm 1 m/s 729 mmHg 86%
    07:00 +26°C° 0,2 mm 1 m/s 730 mmHg 86%
    08:00 +27°C° 0,6 mm 1 m/s 731 mmHg 81%
    09:00 +29°C° 0,6 mm 1 m/s 731 mmHg 76%
    10:00 +31°C° 0,6 mm 1 m/s 732 mmHg 70%
    11:00 +30°C° 1 mm 1 m/s 731 mmHg 72%
    12:00 +30°C° 1 mm 1 m/s 730 mmHg 73%
    13:00 +30°C° 1 mm 1 m/s 729 mmHg 75%
    14:00 +29°C° 0,1 mm 1 m/s 729 mmHg 76%
    15:00 +29°C° 0,1 mm 1 m/s 728 mmHg 77%
    16:00 +29°C° 0,1 mm 2 m/s 728 mmHg 78%
    17:00 +28°C° 0 mm 1 m/s 728 mmHg 82%
    18:00 +27°C° 0 mm 1 m/s 728 mmHg 86%
    19:00 +26°C° 0 mm 1 m/s 728 mmHg 89%
    20:00 +25°C° 0 mm 1 m/s 728 mmHg 92%
    21:00 +24°C° 0 mm 1 m/s 729 mmHg 94%
    22:00 +24°C° 0 mm 1 m/s 729 mmHg 96%
    23:00 +21°C° 0 mm 0 m/s 729 mmHg 96%

    25 Février, Dimanche

    Heure Température Précipitation Vent Pression Humidité
    00:00 +21°C° 0 mm 0 m/s 729 mmHg 97%
    01:00 +21°C° 0 mm 0 m/s 729 mmHg 97%
    02:00 +21°C° 0 mm 0 m/s 729 mmHg 97%
    03:00 +21°C° 0 mm 0 m/s 729 mmHg 97%
    04:00 +21°C° 0 mm 0 m/s 729 mmHg 97%
    05:00 +21°C° 0 mm 0 m/s 730 mmHg 94%
    06:00 +24°C° 0 mm 1 m/s 730 mmHg 91%
    07:00 +24°C° 0 mm 1 m/s 731 mmHg 88%
    08:00 +27°C° 0 mm 1 m/s 731 mmHg 76%
    09:00 +30°C° 0 mm 2 m/s 731 mmHg 64%
    10:00 +34°C° 0 mm 2 m/s 732 mmHg 51%
    11:00 +35°C° 0 mm 2 m/s 731 mmHg 47%
    12:00 +36°C° 0 mm 2 m/s 730 mmHg 43%
    13:00 +37°C° 0 mm 2 m/s 729 mmHg 40%
    14:00 +36°C° 0 mm 1 m/s 729 mmHg 39%
    15:00 +36°C° 0 mm 1 m/s 728 mmHg 39%
    16:00 +36°C° 0 mm 1 m/s 728 mmHg 38%
    17:00 +33°C° 0 mm 1 m/s 728 mmHg 48%
    18:00 +29°C° 0 mm 0 m/s 728 mmHg 57%
    19:00 +26°C° 0 mm 0 m/s 728 mmHg 67%
    20:00 +26°C° 0 mm 0 m/s 728 mmHg 71%
    21:00 +25°C° 0 mm 0 m/s 728 mmHg 76%
    22:00 +26°C° 0 mm 1 m/s 728 mmHg 80%
    23:00 +24°C° 0 mm 0 m/s 728 mmHg 82%
    Voir plus